QPF
0.00 0.00 0.00 0.00 0.00 0.00 0.00 0.00 0.00 0.00 0.00 0.00 0.00 0.00 0.00 0.00 0.00 0.00 0.00 0.00 0.00 0.00 0.00 0.00 0.00 0.00 0.00 0.00 0.00 0.00 0.00 0.00 0.00 0.00 0.00 0.00 0.00 0.00 0.00 0.00 0.00 0.00 0.00
0.00 0.00 0.00 0.00 0.00 0.00 0.00 0.00 0.00 0.00 0.00 0.00 0.00 0.00 0.00 0.00 0.00 0.00 0.00 0.00 0.00 0.00 0.00 0.00 0.00 0.00 0.00 0.00 0.00 0.00 0.00 0.00 0.00 0.00 0.00 0.00 0.00 0.00 0.00 0.00 0.00 0.00 0.00
0.00 0.00 0.00 0.00 0.00 0.00 0.00 0.00 0.00 0.00 0.00 0.00 0.00 0.00 0.00 0.00 0.00 0.00 0.00 0.00 0.00 0.00 0.00 0.00 0.00 0.00 0.00 0.00 0.00 0.00 0.00 0.00 0.01 0.01 0.00 0.00 0.00 0.00 0.00 0.00 0.00 0.00 0.00
0.00 0.00 0.00 0.00 0.00 0.00 0.00 0.00 0.00 0.00 0.00 0.00 0.00 0.00 0.00 0.00 0.00 0.00 0.00 0.00 0.00 0.00 0.00 0.00 0.00 0.00 0.00 0.00 0.00 0.01 0.01 0.01 0.01 0.02 0.01 0.00 0.00 0.00 0.00 0.00 0.00 0.00 0.00
0.00 0.00 0.00 0.00 0.00 0.00 0.00 0.00 0.00 0.00 0.00 0.00 0.00 0.00 0.00 0.00 0.00 0.00 0.00 0.00 0.00 0.00 0.00 0.00 0.00 0.00 0.00 0.00 0.01 0.01 0.02 0.02 0.03 0.03 0.02 0.01 0.01 0.01 0.01 0.00 0.01 0.00 0.00
0.00 0.00 0.00 0.00 0.00 0.00 0.00 0.00 0.00 0.00 0.00 0.00 0.00 0.00 0.00 0.00 0.00 0.00 0.00 0.00 0.00 0.00 0.00 0.00 0.00 0.00 0.00 0.01 0.02 0.02 0.03 0.03 0.03 0.03 0.02 0.02 0.01 0.00 0.01 0.01 0.02 0.02 0.01
0.00 0.00 0.00 0.00 0.00 0.00 0.00 0.00 0.00 0.00 0.00 0.00 0.00 0.00 0.00 0.00 0.00 0.00 0.00 0.00 0.00 0.00 0.00 0.00 0.00 0.00 0.00 0.01 0.02 0.04 0.07 0.07 0.05 0.03 0.03 0.01 0.00 0.01 0.01 0.03 0.02 0.02 0.01
0.00 0.00 0.00 0.00 0.00 0.00 0.00 0.00 0.00 0.00 0.00 0.00 0.00 0.00 0.00 0.00 0.00 0.00 0.00 0.00 0.00 0.00 0.00 0.00 0.00 0.00 0.00 0.01 0.02 0.03 0.04 0.05 0.06 0.08 0.09 0.03 0.01 0.00 0.01 0.02 0.02 0.03 0.02
0.00 0.00 0.00 0.00 0.00 0.00 0.00 0.00 0.00 0.00 0.00 0.00 0.00 0.00 0.00 0.00 0.00 0.00 0.00 0.00 0.00 0.00 0.00 0.00 0.00 0.00 0.00 0.01 0.04 0.04 0.02 0.01 0.02 0.05 0.09 0.09 0.05 0.03 0.03 0.07 0.09 0.08 0.04
0.00 0.00 0.00 0.00 0.00 0.00 0.00 0.00 0.00 0.00 0.00 0.00 0.00 0.00 0.00 0.00 0.00 0.00 0.00 0.00 0.00 0.00 0.00 0.00 0.00 0.01 0.01 0.02 0.05 0.05 0.03 0.01 0.01 0.02 0.05 0.07 0.08 0.07 0.07 0.08 0.09 0.08 0.05
0.00 0.00 0.00 0.00 0.00 0.00 0.00 0.00 0.00 0.00 0.00 0.00 0.00 0.00 0.00 0.00 0.00 0.00 0.00 0.00 0.00 0.00 0.00 0.00 0.00 0.01 0.02 0.03 0.04 0.05 0.03 0.01 0.02 0.03 0.03 0.03 0.03 0.04 0.04 0.04 0.04 0.04 0.03
0.00 0.00 0.00 0.00 0.00 0.00 0.00 0.00 0.00 0.00 0.00 0.00 0.00 0.00 0.00 0.00 0.00 0.00 0.00 0.00 0.00 0.01 0.01 0.01 0.01 0.01 0.02 0.03 0.05 0.07 0.05 0.05 0.08 0.07 0.04 0.02 0.01 0.01 0.01 0.01 0.02 0.02 0.01
0.00 0.00 0.00 0.00 0.00 0.00 0.00 0.00 0.00 0.00 0.00 0.00 0.00 0.00 0.00 0.00 0.00 0.00 0.00 0.00 0.01 0.01 0.01 0.01 0.01 0.02 0.03 0.03 0.05 0.07 0.09 0.11 0.13 0.10 0.04 0.01 0.00 0.00 0.01 0.01 0.01 0.01 0.01
0.00 0.00 0.00 0.00 0.00 0.00 0.00 0.00 0.00 0.00 0.00 0.00 0.01 0.01 0.01 0.00 0.00 0.00 0.00 0.00 0.00 0.01 0.01 0.01 0.02 0.04 0.04 0.04 0.04 0.05 0.08 0.10 0.09 0.07 0.03 0.01 0.01 0.01 0.02 0.01 0.01 0.01 0.01
0.00 0.00 0.00 0.00 0.00 0.00 0.00 0.00 0.00 0.00 0.00 0.01 0.01 0.01 0.01 0.01 0.01 0.01 0.01 0.02 0.02 0.02 0.02 0.03 0.03 0.04 0.06 0.06 0.05 0.04 0.04 0.06 0.07 0.07 0.05 0.03 0.02 0.02 0.01 0.01 0.01 0.01 0.01
0.00 0.00 0.00 0.00 0.00 0.00 0.00 0.00 0.00 0.00 0.01 0.01 0.01 0.01 0.01 0.01 0.01 0.02 0.02 0.03 0.03 0.04 0.06 0.07 0.04 0.04 0.04 0.05 0.05 0.04 0.04 0.04 0.04 0.04 0.05 0.04 0.02 0.02 0.01 0.01 0.01 0.01 0.01
0.00 0.00 0.00 0.00 0.00 0.00 0.00 0.01 0.01 0.01 0.00 0.00 0.01 0.01 0.01 0.01 0.02 0.02 0.02 0.02 0.03 0.04 0.06 0.06 0.04 0.03 0.03 0.03 0.03 0.03 0.03 0.02 0.02 0.03 0.03 0.03 0.02 0.01 0.01 0.01 0.01 0.01 0.01
0.00 0.00 0.00 0.00 0.00 0.00 0.01 0.01 0.02 0.02 0.02 0.01 0.00 0.01 0.01 0.01 0.01 0.01 0.02 0.03 0.03 0.03 0.04 0.03 0.03 0.03 0.03 0.03 0.03 0.03 0.03 0.03 0.04 0.03 0.02 0.02 0.02 0.01 0.01 0.01 0.01 0.01 0.01
0.00 0.00 0.00 0.00 0.00 0.01 0.01 0.01 0.02 0.02 0.02 0.02 0.01 0.01 0.01 0.01 0.01 0.01 0.01 0.02 0.02 0.02 0.02 0.02 0.03 0.03 0.03 0.03 0.03 0.03 0.03 0.03 0.03 0.02 0.02 0.01 0.01 0.01 0.01 0.01 0.01 0.01 0.01
0.00 0.00 0.00 0.01 0.01 0.01 0.01 0.02 0.03 0.03 0.03 0.02 0.02 0.01 0.01 0.02 0.02 0.01 0.01 0.02 0.02 0.02 0.02 0.02 0.02 0.03 0.03 0.03 0.04 0.04 0.03 0.03 0.02 0.02 0.02 0.01 0.01 0.01 0.01 0.01 0.01 0.01 0.01
0.00 0.00 0.01 0.01 0.01 0.02 0.02 0.03 0.03 0.04 0.03 0.03 0.02 0.01 0.03 0.05 0.04 0.02 0.02 0.02 0.02 0.02 0.02 0.02 0.02 0.02 0.02 0.03 0.03 0.03 0.03 0.02 0.01 0.01 0.01 0.01 0.01 0.01 0.01 0.01 0.01 0.01 0.01
0.01 0.01 0.01 0.01 0.02 0.03 0.03 0.03 0.03 0.04 0.03 0.03 0.02 0.02 0.03 0.03 0.03 0.02 0.02 0.01 0.01 0.01 0.02 0.02 0.02 0.02 0.02 0.02 0.02 0.02 0.02 0.01 0.01 0.01 0.01 0.01 0.01 0.01 0.01 0.01 0.01 0.01 0.02
0.01 0.02 0.02 0.02 0.02 0.03 0.03 0.03 0.03 0.03 0.03 0.03 0.03 0.03 0.03 0.03 0.02 0.02 0.02 0.01 0.01 0.02 0.02 0.02 0.02 0.03 0.02 0.02 0.01 0.01 0.01 0.01 0.01 0.01 0.01 0.01 0.01 0.01 0.01 0.01 0.01 0.02 0.02
0.02 0.02 0.02 0.02 0.03 0.03 0.03 0.03 0.03 0.03 0.04 0.04 0.03 0.03 0.03 0.03 0.02 0.02 0.02 0.02 0.02 0.02 0.02 0.02 0.03 0.02 0.02 0.02 0.01 0.01 0.01 0.00 0.00 0.00 0.01 0.01 0.01 0.01 0.02 0.02 0.02 0.02 0.02
0.02 0.02 0.03 0.03 0.04 0.04 0.04 0.03 0.03 0.03 0.03 0.03 0.03 0.03 0.03 0.03 0.02 0.02 0.01 0.01 0.01 0.01 0.02 0.02 0.02 0.02 0.02 0.01 0.01 0.01 0.00 0.00 0.01 0.01 0.02 0.02 0.02 0.02 0.02 0.02 0.01 0.01 0.01
0.01 0.02 0.03 0.04 0.04 0.04 0.04 0.04 0.04 0.03 0.03 0.03 0.03 0.03 0.03 0.02 0.02 0.01 0.01 0.01 0.01 0.01 0.01 0.01 0.01 0.01 0.01 0.01 0.00 0.00 0.00 0.01 0.01 0.02 0.03 0.03 0.02 0.02 0.02 0.02 0.02 0.02 0.02
MSLP
1013.85 1013.63 1013.38 1013.09 1012.74 1012.33 1011.90 1011.47 1011.05 1010.69 1010.39 1010.15 1009.96 1009.80 1009.68 1009.57 1009.49 1009.44 1009.44 1009.51 1009.67 1009.93 1010.28 1010.71 1011.17 1011.64 1012.08 1012.47 1012.77 1013.01 1013.18 1013.31 1013.44 1013.57 1013.74 1013.95 1014.17 1014.41 1014.64 1014.83 1014.96 1015.02 1015.02
1013.82 1013.58 1013.31 1012.98 1012.59 1012.15 1011.68 1011.21 1010.75 1010.34 1009.97 1009.66 1009.39 1009.14 1008.92 1008.70 1008.51 1008.34 1008.23 1008.20 1008.26 1008.43 1008.70 1009.06 1009.48 1009.92 1010.36 1010.76 1011.11 1011.40 1011.66 1011.89 1012.11 1012.36 1012.63 1012.92 1013.23 1013.53 1013.80 1014.02 1014.16 1014.23 1014.22
1013.81 1013.57 1013.28 1012.93 1012.51 1012.03 1011.52 1011.00 1010.50 1010.03 1009.60 1009.21 1008.86 1008.53 1008.20 1007.89 1007.59 1007.32 1007.11 1006.97 1006.94 1007.01 1007.20 1007.48 1007.84 1008.24 1008.65 1009.05 1009.43 1009.78 1010.10 1010.42 1010.74 1011.08 1011.44 1011.82 1012.20 1012.56 1012.87 1013.12 1013.28 1013.34 1013.33
1013.79 1013.55 1013.24 1012.86 1012.41 1011.89 1011.34 1010.77 1010.22 1009.69 1009.20 1008.74 1008.31 1007.90 1007.49 1007.09 1006.70 1006.35 1006.04 1005.82 1005.69 1005.68 1005.79 1005.99 1006.29 1006.64 1007.02 1007.41 1007.80 1008.17 1008.55 1008.93 1009.32 1009.73 1010.17 1010.61 1011.05 1011.46 1011.80 1012.07 1012.25 1012.33 1012.32
1013.72 1013.46 1013.13 1012.72 1012.23 1011.67 1011.07 1010.46 1009.85 1009.27 1008.72 1008.20 1007.71 1007.22 1006.75 1006.27 1005.82 1005.39 1005.02 1004.72 1004.53 1004.44 1004.48 1004.62 1004.84 1005.14 1005.48 1005.85 1006.23 1006.62 1007.02 1007.43 1007.87 1008.33 1008.81 1009.30 1009.77 1010.21 1010.59 1010.88 1011.07 1011.18 1011.19
1013.56 1013.27 1012.91 1012.45 1011.91 1011.31 1010.67 1010.02 1009.37 1008.75 1008.15 1007.58 1007.03 1006.50 1005.96 1005.44 1004.93 1004.45 1004.02 1003.68 1003.43 1003.29 1003.26 1003.34 1003.52 1003.76 1004.05 1004.38 1004.74 1005.12 1005.52 1005.94 1006.39 1006.87 1007.37 1007.88 1008.38 1008.83 1009.23 1009.54 1009.77 1009.90 1009.95
1013.28 1012.95 1012.53 1012.02 1011.45 1010.81 1010.14 1009.46 1008.78 1008.13 1007.51 1006.90 1006.32 1005.74 1005.16 1004.59 1004.04 1003.53 1003.07 1002.68 1002.40 1002.21 1002.14 1002.17 1002.29 1002.48 1002.73 1003.01 1003.33 1003.68 1004.05 1004.46 1004.90 1005.37 1005.87 1006.38 1006.88 1007.35 1007.76 1008.10 1008.36 1008.54 1008.63
1012.86 1012.46 1011.99 1011.44 1010.83 1010.17 1009.49 1008.80 1008.12 1007.46 1006.82 1006.19 1005.58 1004.97 1004.36 1003.76 1003.18 1002.64 1002.15 1001.74 1001.43 1001.21 1001.10 1001.09 1001.16 1001.30 1001.50 1001.73 1002.00 1002.30 1002.63 1003.00 1003.41 1003.86 1004.34 1004.84 1005.34 1005.81 1006.25 1006.62 1006.91 1007.14 1007.28
1012.31 1011.85 1011.33 1010.74 1010.11 1009.44 1008.76 1008.08 1007.42 1006.76 1006.12 1005.49 1004.86 1004.23 1003.59 1002.96 1002.36 1001.79 1001.28 1000.85 1000.52 1000.28 1000.14 1000.09 1000.12 1000.21 1000.35 1000.53 1000.74 1000.98 1001.26 1001.58 1001.95 1002.36 1002.82 1003.30 1003.80 1004.28 1004.74 1005.14 1005.48 1005.76 1005.96
1011.68 1011.16 1010.59 1009.98 1009.34 1008.68 1008.02 1007.36 1006.72 1006.08 1005.44 1004.80 1004.16 1003.50 1002.84 1002.19 1001.56 1000.97 1000.45 1000.01 999.66 999.41 999.25 999.17 999.16 999.20 999.29 999.41 999.55 999.74 999.96 1000.23 1000.55 1000.93 1001.36 1001.83 1002.32 1002.82 1003.29 1003.73 1004.12 1004.44 1004.70
1011.01 1010.44 1009.84 1009.21 1008.57 1007.93 1007.29 1006.66 1006.03 1005.40 1004.77 1004.12 1003.45 1002.78 1002.09 1001.42 1000.77 1000.17 999.64 999.20 998.84 998.59 998.41 998.31 998.27 998.27 998.30 998.37 998.45 998.58 998.74 998.96 999.24 999.58 999.99 1000.45 1000.95 1001.45 1001.96 1002.43 1002.85 1003.22 1003.53
1010.38 1009.76 1009.13 1008.49 1007.85 1007.22 1006.59 1005.98 1005.36 1004.73 1004.08 1003.42 1002.73 1002.02 1001.31 1000.62 999.96 999.36 998.84 998.40 998.06 997.80 997.63 997.51 997.44 997.41 997.40 997.41 997.44 997.51 997.63 997.80 998.04 998.36 998.76 999.21 999.71 1000.23 1000.76 1001.26 1001.72 1002.13 1002.47
1009.82 1009.17 1008.51 1007.85 1007.20 1006.57 1005.94 1005.31 1004.68 1004.03 1003.36 1002.66 1001.94 1001.21 1000.48 999.78 999.12 998.54 998.03 997.62 997.30 997.06 996.88 996.76 996.67 996.61 996.56 996.53 996.52 996.54 996.62 996.76 996.99 997.29 997.68 998.13 998.64 999.18 999.72 1000.24 1000.73 1001.16 1001.52
1009.37 1008.68 1007.98 1007.30 1006.63 1005.97 1005.31 1004.65 1003.98 1003.29 1002.57 1001.83 1001.08 1000.32 999.58 998.88 998.25 997.69 997.22 996.84 996.55 996.34 996.18 996.06 995.96 995.87 995.79 995.72 995.68 995.68 995.73 995.86 996.08 996.38 996.77 997.23 997.74 998.29 998.84 999.37 999.87 1000.31 1000.68
1009.01 1008.27 1007.54 1006.82 1006.10 1005.40 1004.69 1003.98 1003.24 1002.50 1001.72 1000.94 1000.15 999.37 998.63 997.95 997.35 996.83 996.41 996.08 995.84 995.65 995.51 995.39 995.28 995.18 995.08 994.99 994.94 994.92 994.97 995.10 995.32 995.63 996.03 996.50 997.02 997.57 998.12 998.65 999.14 999.57 999.94
1008.69 1007.92 1007.14 1006.37 1005.60 1004.83 1004.06 1003.28 1002.48 1001.66 1000.84 1000.01 999.19 998.41 997.69 997.04 996.48 996.02 995.65 995.37 995.17 995.01 994.88 994.77 994.66 994.55 994.44 994.34 994.28 994.27 994.33 994.48 994.72 995.05 995.47 995.95 996.47 997.02 997.55 998.06 998.53 998.93 999.27
1008.36 1007.55 1006.72 1005.90 1005.07 1004.24 1003.41 1002.56 1001.70 1000.83 999.96 999.10 998.28 997.52 996.82 996.22 995.71 995.30 994.99 994.76 994.58 994.45 994.33 994.22 994.10 993.98 993.87 993.77 993.72 993.74 993.83 994.01 994.28 994.64 995.07 995.56 996.08 996.60 997.11 997.58 998.00 998.35 998.64
1007.95 1007.10 1006.24 1005.38 1004.51 1003.63 1002.75 1001.85 1000.95 1000.04 999.16 998.30 997.49 996.75 996.10 995.54 995.09 994.74 994.47 994.27 994.12 993.99 993.87 993.75 993.63 993.50 993.39 993.31 993.29 993.33 993.46 993.68 993.99 994.38 994.83 995.32 995.81 996.30 996.76 997.17 997.52 997.81 998.03
1007.41 1006.54 1005.66 1004.78 1003.89 1002.99 1002.09 1001.17 1000.26 999.36 998.48 997.64 996.87 996.18 995.58 995.08 994.68 994.37 994.13 993.95 993.81 993.68 993.55 993.41 993.28 993.15 993.04 992.98 992.99 993.07 993.25 993.51 993.85 994.26 994.72 995.19 995.65 996.08 996.47 996.80 997.06 997.27 997.41
1006.73 1005.86 1004.99 1004.11 1003.23 1002.35 1001.46 1000.56 999.67 998.80 997.96 997.17 996.46 995.83 995.28 994.84 994.49 994.21 994.00 993.83 993.67 993.53 993.38 993.22 993.07 992.94 992.84 992.81 992.85 992.97 993.18 993.48 993.85 994.26 994.70 995.13 995.53 995.89 996.19 996.42 996.58 996.69 996.74
1005.95 1005.10 1004.25 1003.41 1002.57 1001.73 1000.88 1000.04 999.21 998.40 997.62 996.90 996.26 995.69 995.21 994.82 994.51 994.26 994.06 993.88 993.71 993.55 993.37 993.20 993.04 992.90 992.82 992.80 992.87 993.02 993.26 993.57 993.94 994.34 994.73 995.10 995.42 995.68 995.87 995.99 996.05 996.05 996.00
1005.12 1004.31 1003.51 1002.72 1001.94 1001.17 1000.39 999.62 998.86 998.13 997.44 996.80 996.23 995.74 995.32 994.98 994.70 994.47 994.28 994.09 993.91 993.72 993.53 993.34 993.16 993.03 992.96 992.95 993.03 993.20 993.45 993.76 994.10 994.45 994.77 995.06 995.27 995.41 995.48 995.48 995.42 995.32 995.19
1004.33 1003.57 1002.83 1002.11 1001.40 1000.70 1000.00 999.31 998.64 997.99 997.38 996.82 996.33 995.90 995.54 995.25 995.00 994.79 994.60 994.42 994.22 994.02 993.81 993.61 993.44 993.30 993.23 993.23 993.31 993.47 993.70 993.97 994.26 994.53 994.76 994.93 995.03 995.04 994.98 994.85 994.68 994.49 994.28
1003.65 1002.95 1002.27 1001.61 1000.97 1000.34 999.71 999.09 998.49 997.92 997.39 996.90 996.48 996.12 995.81 995.56 995.35 995.16 994.98 994.80 994.61 994.40 994.19 993.98 993.80 993.66 993.58 993.57 993.64 993.77 993.95 994.16 994.37 994.54 994.66 994.71 994.67 994.55 994.36 994.12 993.85 993.57 993.31
1003.14 1002.48 1001.86 1001.25 1000.66 1000.08 999.51 998.95 998.41 997.90 997.42 997.00 996.63 996.33 996.07 995.86 995.69 995.53 995.37 995.20 995.01 994.80 994.59 994.39 994.20 994.05 993.96 993.93 993.96 994.03 994.15 994.27 994.38 994.44 994.44 994.35 994.19 993.94 993.63 993.29 992.93 992.59 992.28
1002.80 1002.18 1001.59 1001.03 1000.47 999.92 999.38 998.86 998.35 997.88 997.45 997.07 996.76 996.49 996.29 996.12 995.98 995.85 995.71 995.56 995.39 995.19 994.99 994.78 994.58 994.42 994.30 994.23 994.20 994.22 994.25 994.28 994.28 994.23 994.10 993.90 993.61 993.25 992.84 992.40 991.98 991.58 991.23
Thickness
5579 5575 5571 5567 5564 5559 5555 5552 5549 5546 5542 5538 5534 5530 5526 5523 5518 5513 5510 5505 5500 5498 5491 5486 5483 5475 5469 5462 5454 5447 5441 5435 5439 5448 5435 5430 5423 5418 5414 5409 5405 5402 5400
5567 5563 5559 5555 5550 5545 5541 5539 5535 5531 5528 5523 5520 5516 5513 5510 5506 5502 5500 5496 5491 5488 5483 5477 5475 5467 5461 5454 5447 5441 5435 5430 5427 5432 5424 5416 5411 5406 5400 5396 5392 5389 5387
5553 5548 5543 5539 5535 5530 5526 5523 5519 5515 5511 5507 5503 5500 5498 5495 5492 5490 5488 5485 5482 5480 5475 5470 5466 5457 5454 5447 5440 5435 5429 5423 5419 5418 5417 5406 5400 5393 5387 5383 5380 5377 5374
5538 5533 5527 5522 5518 5513 5509 5505 5501 5497 5493 5490 5487 5484 5482 5479 5477 5475 5473 5472 5471 5468 5465 5461 5457 5450 5446 5440 5433 5428 5421 5415 5409 5406 5404 5396 5389 5382 5374 5371 5367 5364 5362
5522 5516 5511 5506 5501 5496 5491 5487 5483 5478 5475 5472 5469 5467 5465 5463 5461 5459 5458 5458 5457 5456 5453 5450 5447 5443 5438 5431 5425 5419 5411 5406 5399 5394 5392 5385 5379 5371 5366 5361 5356 5353 5351
5505 5499 5494 5488 5483 5477 5472 5468 5464 5461 5457 5454 5451 5450 5449 5448 5449 5449 5449 5447 5446 5444 5443 5440 5437 5433 5430 5427 5423 5417 5407 5397 5391 5385 5382 5377 5372 5364 5356 5349 5343 5339 5339
5487 5481 5475 5470 5464 5459 5455 5451 5446 5443 5441 5438 5436 5434 5434 5434 5435 5437 5437 5438 5436 5435 5432 5430 5427 5425 5421 5416 5412 5410 5405 5399 5390 5378 5374 5371 5362 5354 5344 5337 5333 5331 5331
5470 5463 5457 5451 5446 5442 5438 5433 5430 5427 5425 5423 5422 5421 5421 5422 5423 5424 5425 5426 5426 5425 5422 5420 5417 5415 5410 5404 5400 5396 5393 5388 5382 5375 5369 5362 5353 5344 5335 5329 5324 5320 5319
5453 5447 5441 5434 5429 5426 5422 5419 5416 5413 5412 5410 5410 5409 5409 5411 5411 5413 5414 5413 5413 5413 5411 5409 5406 5404 5401 5396 5391 5387 5382 5378 5371 5366 5359 5353 5345 5337 5327 5318 5313 5310 5312
5438 5432 5426 5419 5414 5411 5409 5406 5404 5400 5400 5400 5399 5398 5397 5398 5400 5401 5402 5401 5401 5401 5400 5397 5396 5394 5391 5387 5382 5377 5373 5367 5357 5351 5346 5342 5336 5330 5324 5315 5309 5303 5302
5423 5417 5412 5406 5401 5398 5396 5394 5391 5390 5390 5390 5389 5389 5388 5388 5389 5390 5391 5390 5390 5390 5389 5387 5384 5383 5382 5378 5374 5369 5364 5355 5346 5339 5333 5328 5322 5317 5312 5307 5301 5295 5292
5410 5405 5401 5396 5390 5388 5384 5383 5381 5379 5380 5380 5380 5381 5380 5379 5379 5380 5381 5382 5383 5381 5380 5377 5374 5373 5371 5368 5364 5360 5354 5346 5337 5330 5324 5320 5314 5309 5303 5296 5291 5285 5281
5397 5393 5389 5385 5381 5377 5374 5373 5373 5371 5370 5371 5371 5372 5373 5372 5371 5372 5373 5374 5374 5372 5369 5368 5366 5364 5361 5357 5353 5349 5344 5336 5329 5323 5318 5313 5307 5300 5292 5285 5279 5274 5269
5385 5382 5378 5375 5373 5370 5366 5364 5363 5363 5362 5363 5363 5365 5366 5367 5365 5364 5363 5362 5363 5361 5358 5357 5356 5353 5348 5344 5340 5336 5331 5326 5321 5316 5310 5304 5296 5289 5282 5275 5269 5263 5258
5374 5371 5368 5365 5363 5363 5361 5358 5357 5358 5355 5356 5358 5358 5359 5362 5361 5361 5361 5359 5355 5352 5350 5345 5340 5336 5332 5329 5325 5322 5318 5313 5310 5305 5299 5293 5286 5279 5273 5266 5259 5253 5249
5364 5362 5359 5357 5356 5355 5355 5357 5356 5354 5355 5355 5355 5354 5355 5355 5356 5356 5355 5354 5351 5348 5344 5339 5333 5327 5322 5318 5314 5311 5306 5302 5298 5293 5288 5283 5277 5270 5264 5257 5250 5244 5241
5353 5352 5351 5350 5349 5348 5348 5349 5352 5356 5354 5353 5352 5351 5350 5350 5350 5349 5348 5346 5343 5339 5333 5329 5324 5318 5313 5308 5304 5300 5296 5292 5286 5281 5277 5272 5266 5260 5255 5249 5242 5236 5233
5346 5345 5345 5344 5343 5343 5343 5343 5343 5346 5349 5350 5348 5346 5345 5345 5344 5343 5341 5338 5333 5328 5322 5318 5314 5310 5305 5300 5295 5290 5286 5281 5276 5271 5267 5262 5256 5251 5246 5240 5235 5229 5226
5341 5340 5340 5340 5340 5339 5339 5339 5339 5339 5340 5341 5342 5342 5341 5339 5338 5335 5332 5327 5323 5319 5314 5309 5305 5301 5297 5292 5287 5282 5277 5272 5267 5262 5257 5252 5247 5242 5237 5233 5228 5225 5221
5336 5337 5337 5337 5337 5336 5335 5335 5335 5334 5334 5334 5334 5333 5333 5331 5329 5326 5322 5318 5314 5310 5306 5302 5298 5294 5290 5285 5279 5274 5269 5264 5259 5254 5249 5244 5239 5234 5230 5225 5221 5216 5214
5333 5334 5335 5333 5332 5331 5331 5332 5331 5330 5330 5329 5328 5327 5327 5324 5321 5318 5315 5311 5306 5303 5299 5295 5291 5287 5282 5277 5272 5267 5262 5257 5252 5246 5241 5236 5231 5226 5222 5219 5215 5211 5208
5329 5330 5330 5330 5330 5329 5330 5329 5328 5326 5325 5324 5323 5322 5321 5317 5314 5311 5308 5304 5300 5296 5292 5288 5284 5279 5274 5269 5264 5259 5254 5249 5244 5238 5233 5228 5224 5220 5217 5213 5210 5207 5204
5327 5327 5327 5327 5327 5327 5327 5325 5323 5322 5321 5320 5319 5317 5315 5312 5309 5306 5302 5298 5294 5290 5286 5282 5277 5271 5266 5261 5257 5252 5247 5243 5238 5232 5227 5222 5219 5216 5213 5210 5207 5204 5202
5324 5323 5323 5324 5323 5323 5323 5322 5320 5319 5317 5316 5314 5313 5310 5307 5304 5300 5296 5292 5287 5283 5278 5274 5269 5264 5258 5254 5249 5245 5240 5236 5232 5227 5223 5219 5216 5213 5211 5208 5206 5203 5200
5320 5319 5319 5319 5319 5319 5318 5317 5316 5315 5314 5312 5311 5309 5305 5302 5298 5294 5289 5285 5280 5276 5271 5266 5261 5256 5252 5247 5242 5238 5235 5232 5229 5224 5220 5217 5214 5211 5209 5206 5204 5202 5199
5315 5315 5315 5315 5316 5315 5314 5314 5313 5312 5310 5308 5306 5303 5300 5296 5292 5288 5283 5278 5273 5268 5264 5259 5255 5250 5245 5241 5237 5234 5232 5229 5227 5224 5219 5215 5212 5210 5207 5206 5204 5202 5200